EW8081 Weather Reports


Display with metric or nautical units.
time (UTC)temp
F
wind
direction
speed
MPH
gust
MPH
rain 1hr
in
rain 24hr
in
rain mn
in
humidity
%
barometer
mb
20260508041502 74 297 9.0 23.0 0.00 0.00 0.00 34 1014.0
20260508040001 74 305 9.0 18.0 0.00 0.00 0.00 34 1014.1
20260508034612 74 292 9.0 17.0 0.00 0.00 0.00 35 1014.1
20260508033058 74 356 11.0 18.0 0.00 0.00 0.00 34 1014.0
20260508031557 73 292 10.0 26.0 0.00 0.00 0.00 34 1014.3
20260508030055 73 316 7.0 21.0 0.00 0.00 0.00 35 1014.5
20260508024551 73 309 11.0 21.0 0.00 0.00 0.00 36 1014.7
20260508023048 73 320 10.0 19.0 0.00 0.00 0.00 35 1014.9
20260508021551 71 285 10.0 20.0 0.00 0.00 0.00 38 1015.1
20260508020047 71 284 8.0 15.0 0.00 0.00 0.00 39 1015.4
20260508014539 70 309 8.0 19.0 0.00 0.00 0.00 41 1015.5
20260508013043 69 293 10.0 20.0 0.00 0.00 0.00 41 1015.7
20260508011532 68 283 11.0 21.0 0.00 0.00 0.00 41 1015.9
20260508010033 67 291 10.0 20.0 0.00 0.00 0.00 42 1015.8
20260508004527 67 235 12.0 21.0 0.00 0.00 0.00 43 1016.2
20260508003124 66 332 11.0 24.0 0.00 0.00 0.00 43 1016.2
20260508001538 65 295 13.0 19.0 0.00 0.00 0.00 44 1016.5
20260508000021 65 324 12.0 23.0 0.00 0.00 0.00 45 1016.5
20260507234518 64 314 8.0 19.0 0.00 0.00 0.00 46 1016.5
20260507233017 63 295 10.0 20.0 0.00 0.00 0.00 46 1016.5
20260507231513 62 309 10.0 19.0 0.00 0.00 0.00 47 1016.4
20260507230011 61 293 9.0 19.0 0.00 0.00 0.00 48 1016.4
20260507224506 60 326 9.0 15.0 0.00 0.00 0.00 49 1016.3
20260507223004 59 291 7.0 18.0 0.00 0.00 0.00 50 1016.4
20260507221559 56 341 6.0 13.0 0.00 0.00 0.00 55 1016.2
20260507220056 54 293 7.0 19.0 0.00 0.00 0.00 57 1016.3
20260507214559 53 332 8.0 18.0 0.00 0.00 0.00 57 1016.3
20260507213051 53 299 6.0 15.0 0.00 0.00 0.00 58 1016.1
20260507211549 52 307 7.0 19.0 0.00 0.00 0.00 58 1016.0
20260507210048 52 295 9.0 18.0 0.00 0.00 0.00 58 1016.0
20260507204550 51 320 9.0 17.0 0.00 0.00 0.00 58 1015.8
20260507203041 51 298 7.0 18.0 0.00 0.00 0.00 60 1015.8
20260507201551 50 314 9.0 17.0 0.00 0.00 0.00 60 1015.8
20260507200039 50 307 8.0 16.0 0.00 0.00 0.00 61 1015.9
20260507194538 50 282 8.0 16.0 0.00 0.00 0.00 61 1016.1
20260507193036 50 305 6.0 15.0 0.00 0.00 0.00 61 1016.0
20260507191534 50 329 7.0 17.0 0.00 0.00 0.00 61 1016.0
20260507190033 49 291 7.0 17.0 0.00 0.00 0.00 61 1016.1
20260507184529 50 326 8.0 15.0 0.00 0.00 0.00 61 1016.1
20260507183028 50 294 7.0 18.0 0.00 0.00 0.00 61 1015.8
20260507181525 50 320 7.0 18.0 0.00 0.00 0.00 61 1015.8
20260507180024 49 348 8.0 17.0 0.00 0.00 0.00 61 1016.0
20260507174533 49 305 8.0 16.0 0.00 0.00 0.00 61 1016.0
20260507173022 49 353 8.0 17.0 0.00 0.00 0.00 60 1016.1
20260507171518 49 329 6.0 14.0 0.00 0.00 0.00 60 1016.3
20260507170017 49 314 9.0 15.0 0.00 0.00 0.00 60 1016.7
20260507164512 49 300 7.0 15.0 0.00 0.00 0.00 60 1016.6
20260507163009 49 329 9.0 15.0 0.00 0.00 0.00 59 1016.8
20260507161506 49 293 8.0 15.0 0.00 0.00 0.00 58 1016.8
20260507160012 49 353 9.0 14.0 0.00 0.00 0.00 58 1016.9
20260507154503 50 287 7.0 16.0 0.00 0.00 0.00 57 1017.2
20260507153003 50 315 9.0 17.0 0.00 0.00 0.00 57 1017.2
20260507151559 50 302 6.0 16.0 0.00 0.00 0.00 56 1017.3
20260507150056 49 305 4.0 12.0 0.00 0.00 0.00 56 1017.6
20260507144553 50 298 5.0 13.0 0.00 0.00 0.00 55 1017.5
20260507143053 50 324 5.0 15.0 0.00 0.00 0.00 55 1017.5
20260507141551 50 291 7.0 13.0 0.00 0.00 0.00 54 1017.5
20260507140050 50 302 7.0 14.0 0.00 0.00 0.00 54 1017.6
20260507134547 50 311 8.0 16.0 0.00 0.00 0.00 53 1017.7
20260507133044 50 291 6.0 14.0 0.00 0.00 0.00 53 1017.6
20260507131554 50 298 5.0 14.0 0.00 0.00 0.00 53 1017.6
20260507130045 50 299 5.0 14.0 0.00 0.00 0.00 53 1017.5
20260507124542 51 299 7.0 15.0 0.00 0.00 0.00 51 1017.6
20260507123036 51 311 8.0 17.0 0.00 0.00 0.00 51 1017.5
20260507121535 51 21 8.0 16.0 0.00 0.00 0.00 51 1017.5
20260507120039 51 306 5.0 18.0 0.00 0.00 0.00 50 1017.6
20260507114529 51 338 5.0 16.0 0.00 0.00 0.00 49 1017.6
20260507113028 52 314 6.0 12.0 0.00 0.00 0.00 48 1017.6
20260507111526 52 304 11.0 21.0 0.00 0.00 0.00 47 1017.6
20260507110024 52 301 8.0 17.0 0.00 0.00 0.00 47 1017.4
20260507104521 53 318 8.0 18.0 0.00 0.00 0.00 46 1017.3
20260507103019 53 307 8.0 18.0 0.00 0.00 0.00 46 1017.2
20260507101519 53 320 8.0 17.0 0.00 0.00 0.00 45 1017.1
20260507100020 53 336 10.0 20.0 0.00 0.00 0.00 45 1016.9
20260507094513 53 321 8.0 17.0 0.00 0.00 0.00 45 1016.7
20260507093012 54 312 6.0 19.0 0.00 0.00 0.00 44 1016.7
20260507091514 54 284 5.0 16.0 0.00 0.00 0.00 44 1016.6
20260507090010 54 322 3.0 20.0 0.00 0.00 0.00 44 1016.4
20260507084511 54 312 7.0 18.0 0.00 0.00 0.00 43 1016.2
20260507083005 55 319 9.0 17.0 0.00 0.00 0.00 42 1016.0
20260507081504 55 282 7.0 15.0 0.00 0.00 0.00 42 1015.8
20260507080006 55 316 10.0 18.0 0.00 0.00 0.00 40 1015.4
20260507074610 56 310 13.0 23.0 0.00 0.00 0.00 39 1014.9
20260507073056 56 284 14.0 25.0 0.00 0.00 0.00 39 1014.5
20260507071556 56 314 11.0 21.0 0.00 0.00 0.00 39 1014.4
20260507070054 57 316 9.0 25.0 0.00 0.00 0.00 38 1014.3
20260507064554 57 320 12.0 23.0 0.00 0.00 0.00 37 1014.1
20260507063051 59 315 10.0 20.0 0.00 0.00 0.00 35 1013.8
20260507061549 63 325 12.0 29.0 0.00 0.00 0.00 30 1013.6
20260507060052 64 280 13.0 26.0 0.00 0.00 0.00 28 1013.3
20260507054616 65 285 10.0 25.0 0.00 0.00 0.00 27 1013.5
20260507053049 66 299 8.0 21.0 0.00 0.00 0.00 28 1013.1
20260507051543 65 284 13.0 26.0 0.00 0.00 0.00 27 1013.1
20260507050042 67 274 7.0 18.0 0.00 0.00 0.00 27 1013.1
20260507044548 64 314 14.0 23.0 0.00 0.00 0.00 27 1013.2
20260507043045 66 282 12.0 27.0 0.00 0.00 0.00 25 1013.0